Tracking 18815 objects as of 19-October-2017
HD Live streaming from Space Station
objects crossing your sky now

VANGUARD R/B

Track VANGUARD R/B now!
10-day predictions


NORAD ID: 12
Int'l Code: 1959-001B
Perigee: 562.3 km
Apogee: 3,334.2 km
Inclination: 32.9 °
Period: 125.9 minutes
Semi major axis: 8319 km
RCS: 0.5381 m2 (medium)
Launch date: February 17, 1959
Source: United States (US)
Launch site: AIR FORCE EASTERN TEST RANGE (AFETR)

Note: This is a ROCKET BODY
aabbcc
Your satellite tracking list
Your tracking list is empty





NASA's NSSDC Master Catalog

Two Line Element Set (TLE):
1    12U 59001B   17291.89797922 +.00000057 +00000-0 +33438-4 0  9998
2    12 032.8981 153.3300 1665932 003.2035 357.7848 11.44137967168556
Source of the keplerian elements: AFSPC